Location: Daybis Observatory
(33.4273°N, 88.8061°W)
Time: 03:55:29
(UTC-06:00)

Daily predictions for brighter satellites

Satellite Brightness Start Highest point End
(mag) Time Altitude Azimuth Time Altitude Azimuth Time Altitude Azimuth
Cosmos 1943 4.4 03:57:04 38° ENE 03:57:04 38° ENE 04:01:11 10° NE
CZ-3 R/B 3.4 03:58:01 24° SW 04:09:29 47° S 04:15:47 10° E
USA 229 DEB 4.2 04:08:25 11° S 04:14:48 56° ESE 04:21:32 10° NE
USA 229 4.2 04:08:16 10° S 04:14:55 55° ESE 04:21:37 10° NE
Cosmos 1536 4.4 04:23:33 10° SSE 04:27:09 33° E 04:28:30 26° NE
Lacrosse 5 4.2 04:31:36 13° NNE 04:31:36 13° NNE 04:32:10 10° NNE
ASTRO E2 4.0 04:35:21 40° ESE 04:35:21 40° ESE 04:38:09 10° E
Sakura Rocket 4.4 04:33:13 51° SW 04:34:37 61° S 04:43:07 10° E
Cosmos 1610 Rocket 4.3 04:28:48 10° S 04:34:59 83° W 04:41:16 10° N
Skynet4D Del rocket 4.3 04:36:58 40° SSW 04:37:37 41° S 04:42:38 10° ESE
Feng Yun 1-1 Rocket 4.1 04:34:09 10° N 04:41:21 45° SSW 04:45:03 10° SSW
USA 215 3.4 04:43:15 10° NE 04:49:47 74° SE 04:56:17 10° SW
OAO 3 Copernicus 4.2 04:51:25 68° WSW 04:51:54 75° SSW 04:56:58 10° ESE
Okean 1-7 Rocket 3.8 04:52:12 32° N 04:54:08 69° E 04:58:29 10° SSE
Cosmos 2056 Rocket 3.6 04:57:17 49° WSW 04:57:17 49° WSW 05:01:49 10° S
Meteor 2-13 Rocket 4.3 04:51:34 10° S 04:57:42 76° W 05:03:52 10° N
Thor Agena Rocket 3.7 04:55:10 10° S 04:59:42 47° WSW 04:59:42 47° WSW
CRYOSAT 2 4.2 04:58:26 10° S 05:03:18 75° W 05:07:02 17° N
Ariane Rocket 3.7 04:59:33 10° NNE 05:04:30 54° E 05:09:26 10° S
Meteor 1-19 Rocket 4.1 05:00:26 12° N 05:05:55 83° W 05:11:37 10° S
SKYMED 2 3.7 05:08:40 10° SSE 05:12:59 74° ENE 05:17:09 11° N
Nadezhda 3 Rocket 3.9 05:06:57 10° N 05:13:18 73° W 05:19:37 10° S
Meteor 1-11 Rocket 4.0 05:11:31 10° SSW 05:17:05 46° WNW 05:22:35 10° N
Cosmos 2369 Rocket 2.1 05:13:48 22° NNW 05:17:30 72° WSW 05:23:08 10° S
COSMOS 2406 4.3 05:15:34 10° S 05:20:57 47° ESE 05:26:20 10° NNE
Cosmos 962 Rocket 4.4 05:14:52 10° SSW 05:20:58 63° W 05:27:11 10° N
Centaur AC-112 3.9 05:19:11 13° SW 05:21:47 21° S 05:23:44 10° SE
Lacrosse 4 Rocket 3.1 05:20:03 10° N 05:23:38 28° ENE 05:27:09 10° ESE
Cosmos 1025 Rocket 2.9 05:20:51 10° N 05:25:10 80° W 05:29:29 10° S
Meteor 2-4 Rocket 3.6 05:21:52 10° NNW 05:27:28 75° W 05:33:13 10° S
Meteor 1-23 Rocket 4.1 05:21:55 10° N 05:27:30 88° W 05:33:04 10° S
Meteor 1-5 Rocket 4.0 05:25:42 10° SSW 05:31:03 76° W 05:36:21 10° N
NOSS 3-1 (C) 3.5 05:26:44 10° SSW 05:32:24 75° ESE 05:38:38 10° NE
SL-24 DEB 4.2 05:31:33 10° S 05:36:18 76° W 05:41:07 10° N
SL-27 R/B 3.5 05:33:03 10° S 05:36:27 48° ESE 05:39:58 10° NNE
Atlas Centaur 2 4.0 05:30:11 10° SW 05:38:06 44° SSE 05:45:11 10° E
Cosmos 1943 4.3 05:39:04 21° WNW 05:40:04 22° WNW 05:44:22 10° N
Meteor 2-19 Rocket 4.4 05:34:34 10° S 05:40:41 85° W 05:46:49 10° N
Cosmos 2341 Rocket 4.3 05:36:33 10° SSW 05:42:25 41° W 05:48:16 10° N
Cosmos 1943 Rocket 2.2 05:38:32 10° NNW 05:44:05 86° ENE 05:49:35 10° SSE
Cosmos 1452 Rocket 3.9 05:41:22 13° NNW 05:45:49 44° WSW 05:50:47 10° S
Meteor 2-8 Rocket 4.4 05:42:27 10° N 05:48:38 79° W 05:54:46 10° S
Cosmos 158 Rocket 4.0 05:46:51 10° SSW 05:52:05 70° WNW 05:57:28 10° NNE
Cosmos 1544 Rocket 3.6 05:48:53 10° SSW 05:53:07 53° W 05:57:25 10° N
Tiangong 2 1.0 05:52:03 20° WNW 05:54:06 80° NNE 05:57:14 10° ESE
USA 129 2.2 05:56:05 10° SSE 05:58:12 61° ENE 06:00:20 10° N
IDEFIX/ARIANE 42P 3.4 05:53:58 10° NNE 05:59:05 56° E 06:04:11 10° S
Cosmos 839 Rocket 4.1 05:54:33 10° NNW 06:00:55 81° ENE 06:07:07 10° SSE
COSMO-SKYMED 1 3.5 05:57:22 10° SSW 06:01:06 28° W 06:04:51 10° NW
Cosmos 1461 3.5 05:58:50 10° WSW 06:02:49 34° WNW 06:06:40 10° N
PAYLOAD A 4.1 06:05:34 10° N 06:10:58 70° WNW 06:16:21 10° SSW
CZ-2C R/B 2.7 06:05:56 10° NNE 06:11:02 79° E 06:15:58 10° S
Cosmos 1500 3.1 06:08:12 10° S 06:11:57 80° W 06:15:43 10° N
Okean 2 4.2 06:09:54 10° NNW 06:13:36 31° W 06:17:16 10° SSW
ASTRO E2 3.1 06:10:40 10° W 06:14:39 60° S 06:18:37 10° ESE
Cosmos 1743 3.9 06:12:08 10° SSE 06:15:52 47° E 06:19:39 10° NNE
Meteor 1-28 Rocket 4.2 06:15:34 10° SSW 06:18:49 27° W 06:22:08 10° NW
NOSS 3-1 (A) 3.4 06:14:39 10° SW 06:20:21 64° WNW 06:26:38 10° NNE
Cosmos 1892 Rocket 4.5 06:19:52 10° NNW 06:23:43 29° W 06:27:35 10° SSW
CZ-4 R/B 1.5 06:20:07 10° N 06:23:53 48° WNW 06:27:37 10° SSW
Meteor 1-12 Rocket 4.4 06:19:27 10° SSW 06:24:57 54° W 06:30:29 10° N
